Theta_e
305 305 305 305 305 305 304 304 304 304 304 303 303 303 305 305 305 305 306 307 307 307 311 311 312 314 317 319 320 318 315 313 314 312 313 314 315 315 315 316 315 316 315 316 316
305 305 305 305 305 305 305 305 304 304 304 304 304 304 303 304 304 305 307 306 306 307 310 310 313 316 316 318 319 315 311 312 311 311 313 315 316 316 317 315 315 316 316 316 316
304 305 305 305 305 305 305 305 305 305 304 304 304 304 304 304 305 307 309 310 309 309 311 310 314 316 316 317 318 315 312 311 314 316 317 317 316 317 315 314 316 317 317 316 316
304 304 304 304 304 304 305 305 305 305 304 304 304 304 304 304 304 309 310 308 308 308 312 310 318 318 315 315 317 316 315 315 317 317 317 315 316 315 316 316 316 316 316 316 316
301 300 300 300 300 300 300 301 301 302 302 303 303 303 303 305 305 308 308 308 308 309 312 311 317 317 315 314 316 315 314 316 317 317 317 316 314 314 315 316 316 316 316 316 316
299 298 298 299 300 300 300 300 300 300 300 300 300 299 303 306 306 307 307 307 308 309 311 312 316 317 315 315 314 314 314 314 315 315 315 314 314 314 314 314 314 314 314 314 315
296 295 296 297 298 299 299 300 300 299 299 299 298 297 307 304 306 307 307 307 309 309 309 310 314 316 316 315 316 315 314 311 311 313 313 314 313 312 311 312 313 314 314 315 315
294 295 295 297 298 299 299 299 299 299 299 299 299 301 308 302 303 304 309 311 312 311 310 309 314 317 316 315 313 314 311 313 309 310 312 313 309 312 314 314 314 315 314 314 314
293 294 295 295 297 298 299 298 298 299 301 302 305 308 308 304 304 304 306 311 313 312 311 315 316 317 316 314 313 311 309 308 309 309 311 312 313 312 313 313 313 314 314 313 314
295 293 294 294 296 297 298 298 300 305 310 311 309 308 305 305 307 308 308 316 313 312 317 316 316 313 314 315 312 310 310 310 309 311 311 311 311 310 313 312 312 313 313 312 312
295 294 293 294 295 297 299 300 303 305 308 309 308 307 308 310 309 308 311 316 313 316 313 314 315 314 314 313 310 308 310 309 310 309 309 307 308 309 311 310 309 310 310 311 311
295 293 294 293 297 299 299 302 302 302 302 303 304 308 308 310 309 309 308 315 313 313 310 314 315 311 310 311 313 312 312 311 309 310 311 309 310 307 308 309 309 310 311 310 310
293 293 293 293 300 299 301 301 301 303 303 302 302 302 301 302 308 310 310 313 311 310 313 312 310 311 311 311 312 313 312 311 311 310 309 308 310 308 307 308 309 310 309 310 309
291 293 293 293 297 293 302 298 300 303 300 299 304 305 305 305 305 305 309 311 309 312 311 312 310 310 311 312 311 312 310 312 312 311 309 307 309 306 305 304 304 304 306 309 312
294 291 292 294 293 293 292 298 301 303 289 300 305 306 306 305 305 307 307 311 309 309 310 310 311 311 312 311 311 312 310 311 311 309 309 309 308 307 303 304 303 302 308 312 313
295 291 291 297 295 293 294 300 304 296 290 301 301 299 299 301 306 308 309 308 310 309 309 308 307 309 310 311 311 310 310 308 309 309 311 308 308 306 303 306 307 308 311 313 313
293 292 295 294 293 294 294 303 301 293 297 297 296 297 297 298 300 299 304 299 306 310 309 308 309 308 309 310 310 311 311 313 314 313 310 298 305 305 304 304 305 306 309 309 311
292 294 292 292 293 294 294 303 299 298 294 295 295 297 297 295 297 297 302 299 296 298 303 310 306 307 306 309 310 310 312 307 308 308 307 305 307 305 300 298 299 299 299 304 307
293 293 291 292 296 294 299 297 295 294 293 294 295 296 294 294 296 296 296 297 295 296 299 299 304 298 300 298 303 309 312 307 304 303 302 305 305 301 298 297 296 296 296 297 300
292 292 292 292 296 299 295 295 294 294 293 293 293 293 292 291 293 295 296 293 294 294 294 294 297 297 298 299 298 302 301 311 312 309 308 305 304 300 296 295 294 294 294 295 299
292 292 291 292 291 292 291 293 293 292 293 292 292 291 291 290 291 294 294 293 292 292 293 293 293 295 297 295 296 298 296 298 303 303 305 303 302 298 295 294 293 293 294 294 297
293 290 291 291 291 288 290 291 292 292 292 291 291 291 290 290 291 293 294 293 292 292 292 292 294 294 293 296 295 294 294 294 299 302 298 298 303 295 292 292 293 293 293 294 295
292 293 291 291 291 291 290 292 292 292 292 291 291 291 289 289 289 291 292 292 291 291 291 293 293 292 297 297 293 294 293 294 294 293 296 300 300 295 294 292 292 293 293 294 294
292 289 290 291 290 288 291 291 291 291 292 291 291 291 290 290 290 289 290 291 291 291 293 292 292 291 291 292 292 292 292 292 293 293 292 292 292 293 292 292 292 293 293 293 294
290 288 290 290 290 288 287 289 291 291 291 290 290 291 291 288 290 289 290 290 290 291 290 289 288 290 291 291 291 291 289 290 291 292 292 291 291 291 290 291 290 289 289 290 292
290 290 289 289 290 287 287 289 290 290 290 290 290 290 290 290 291 289 289 290 290 288 288 287 284 289 289 290 291 289 285 287 288 289 290 288 290 287 287 286 286 286 286 287 290
290 290 289 288 288 284 290 289 289 289 290 290 290 290 290 290 289 290 289 289 289 290 289 287 285 288 286 289 289 285 283 285 286 285 285 287 284 283 284 284 284 284 284 286 289
Wind_Speed
13 13 14 14 14 14 14 14 14 14 14 14 15 14 14 16 17 20 25 14 10 17 15 13 12 13 13 10 6 5 3 3 5 7 4 4 3 4 4 4 11 9 10 5 7
15 15 16 16 16 16 16 17 17 16 16 16 16 16 17 19 22 29 24 20 17 19 21 16 17 16 8 9 7 5 4 9 7 5 5 5 3 4 3 6 8 16 18 15 15
18 18 18 19 19 19 19 20 19 19 19 19 19 19 18 18 23 6 3 9 13 18 17 12 15 14 6 8 9 8 7 5 6 11 4 3 3 7 7 7 20 23 26 21 22
21 22 23 23 23 23 23 24 23 23 22 22 22 21 18 15 6 2 5 5 11 18 21 19 18 10 6 7 11 4 13 7 4 7 4 4 3 5 15 25 16 20 21 25 24
22 22 22 22 22 22 23 23 24 24 25 24 23 22 20 12 26 18 16 13 15 21 25 23 22 10 6 6 6 4 3 9 22 20 20 18 14 12 14 37 28 31 29 30 30
23 22 23 23 24 24 24 23 23 23 23 23 23 21 15 10 16 11 13 18 17 25 25 26 14 18 8 5 7 4 6 9 12 17 12 7 9 7 19 31 22 25 27 25 24
23 24 25 26 27 27 26 26 25 25 23 22 22 17 16 35 18 15 14 15 15 22 24 26 22 16 7 2 6 3 5 7 8 10 8 10 7 10 37 25 24 25 23 20 22
23 26 27 27 27 27 27 27 25 25 24 22 19 12 15 23 21 30 26 21 18 20 22 19 24 14 6 2 4 1 1 3 3 5 7 11 8 7 14 14 17 17 19 22 23
25 26 27 27 27 26 26 25 24 21 18 12 9 12 13 13 22 23 21 30 23 21 19 9 20 11 5 5 4 1 6 7 7 8 4 8 3 6 5 3 9 22 31 29 32
30 29 29 28 27 25 24 22 16 9 3 6 4 7 14 5 4 6 19 26 23 19 11 12 9 4 7 7 10 8 6 4 4 2 3 6 13 9 27 15 20 30 34 31 35
31 31 30 27 26 19 21 12 5 2 7 11 9 9 4 2 5 8 22 25 19 20 9 14 11 16 19 18 8 5 3 3 1 4 7 9 16 9 17 16 14 28 34 37 37
31 31 30 26 18 15 16 7 6 9 15 24 34 38 35 7 7 9 18 20 13 11 7 5 22 9 5 9 12 10 9 13 5 5 4 8 23 11 10 17 23 29 35 31 32
27 28 29 24 10 12 11 10 10 8 8 12 16 12 18 23 21 19 24 23 9 10 16 13 3 18 15 8 10 15 14 3 7 5 5 7 18 8 8 16 23 31 29 21 18
27 27 27 22 5 16 5 15 11 3 4 6 4 2 4 4 6 19 30 26 7 16 9 13 14 6 7 14 11 16 7 11 8 2 3 1 7 5 7 8 5 8 16 12 8
34 27 26 12 11 18 21 17 4 2 3 1 4 3 4 6 5 3 26 19 10 8 8 8 6 8 15 14 12 8 7 8 9 4 2 4 2 8 2 6 6 8 5 4 4
39 28 21 9 12 20 20 9 4 4 8 5 8 9 10 7 4 5 5 17 15 6 6 13 5 6 5 2 12 6 3 4 1 3 5 11 8 5 2 3 7 6 5 7 2
40 24 15 18 20 19 17 2 1 4 11 10 10 11 7 10 7 9 5 7 0 10 17 8 12 4 5 9 7 6 7 3 6 4 5 1 4 7 10 14 10 7 17 19 14
34 12 29 27 21 16 11 3 5 7 6 9 8 6 8 15 8 15 6 4 11 7 2 10 3 8 1 14 7 9 7 5 7 5 3 3 6 3 6 15 26 30 27 33 30
23 14 36 27 20 5 4 1 5 5 8 9 5 7 8 10 8 12 7 6 10 11 5 5 1 4 5 5 1 7 7 5 5 3 3 4 3 4 15 20 22 27 33 32 37
19 12 38 24 13 6 6 6 2 5 8 5 7 8 8 11 9 13 7 11 6 10 8 6 4 8 7 5 12 5 4 4 4 6 4 2 1 3 13 16 17 19 23 30 38
21 8 33 20 16 20 4 3 1 11 10 5 6 5 4 5 5 3 7 3 8 7 7 6 4 7 8 7 7 4 5 4 2 1 5 4 2 5 7 7 12 13 21 25 30
13 4 32 20 16 5 3 4 8 12 9 6 5 5 4 5 5 5 3 1 12 7 4 4 2 4 3 11 13 13 7 7 3 2 2 1 3 10 7 9 17 18 23 24 28
12 7 19 25 6 5 7 6 6 9 5 6 4 5 5 5 4 4 3 2 15 7 3 4 2 3 1 4 5 6 7 5 4 1 5 1 2 8 12 16 22 21 26 28 28
7 4 9 16 15 3 5 7 11 11 4 9 3 5 5 4 2 5 6 3 13 5 8 4 2 2 2 1 2 3 8 6 3 2 5 4 7 9 18 18 19 25 27 28 28
9 3 6 4 9 6 6 7 9 10 7 11 5 10 6 3 4 2 3 8 8 10 5 3 2 2 3 4 3 6 12 10 2 4 4 5 14 13 14 16 18 22 31 34 33
6 6 7 7 10 6 7 4 11 12 3 5 7 11 6 2 1 5 4 1 3 6 4 4 0 1 3 3 5 9 17 15 10 7 5 11 10 15 20 23 26 31 32 32 36
8 9 5 7 7 3 5 8 10 11 6 6 4 5 6 5 15 17 10 6 6 4 4 4 2 3 3 1 6 5 16 12 12 12 9 7 10 17 22 23 29 29 34 36 39
Wind_Direction
325 322 318 314 310 306 302 300 300 301 301 303 305 304 301 295 289 283 274 271 251 211 199 192 179 177 182 176 167 152 80 225 235 167 232 160 139 173 179 201 204 210 233 194 199
318 313 309 306 302 299 297 296 295 293 293 294 296 299 301 300 300 288 285 258 228 203 199 190 176 173 175 180 184 142 159 219 209 195 187 174 175 189 211 202 228 234 235 230 228
315 310 305 301 299 297 295 292 290 288 288 288 290 293 298 305 312 293 144 163 187 196 196 190 181 175 179 180 193 181 210 206 232 205 193 203 218 238 197 235 232 241 263 256 253
322 317 315 312 309 305 300 297 293 289 288 288 288 288 291 294 280 248 196 174 189 189 189 180 174 178 186 201 199 189 240 207 234 208 217 196 200 236 221 250 251 267 270 270 267
327 326 323 319 314 310 306 302 297 293 289 284 282 283 285 267 251 261 257 244 206 198 198 190 187 179 187 207 188 236 252 232 246 258 268 271 241 243 254 266 265 269 267 266 270
333 330 323 318 311 305 301 296 294 289 287 285 280 274 261 252 273 242 242 234 227 204 201 201 208 202 212 207 183 243 249 268 272 263 252 230 255 204 262 270 263 265 264 261 262
341 335 330 323 316 310 304 299 292 287 283 279 275 262 242 252 254 246 233 239 228 216 211 212 210 189 206 228 241 281 310 310 222 235 230 222 268 227 264 265 265 262 263 264 266
342 338 333 326 320 315 309 306 300 292 284 280 272 240 248 268 249 241 229 225 221 217 218 224 213 206 199 197 15 337 139 279 296 163 244 161 260 271 276 250 245 259 268 273 273
342 338 336 333 325 317 311 309 304 296 290 274 221 207 260 256 247 244 225 212 211 208 213 206 208 208 160 123 353 286 246 217 322 206 138 186 260 262 281 253 266 284 285 281 279
344 341 341 339 329 323 317 314 312 301 351 159 197 231 254 246 263 248 206 204 190 190 186 187 186 185 189 169 219 200 231 244 223 126 190 230 256 278 287 272 275 283 281 279 281
342 340 341 341 334 334 336 337 309 237 227 218 217 232 266 244 227 207 199 188 181 177 184 194 208 214 207 211 219 108 225 242 298 301 339 280 275 254 258 265 247 267 275 278 281
341 337 337 341 333 340 345 35 9 312 296 266 253 245 246 241 319 217 192 179 182 196 133 180 230 208 200 208 229 254 265 266 257 242 250 295 283 266 252 256 247 255 267 271 281
340 339 337 340 322 325 349 24 338 309 272 276 254 257 259 239 229 227 193 191 188 184 192 209 219 198 199 199 213 234 239 234 245 309 269 291 283 260 254 250 245 250 263 267 266
342 339 339 334 319 338 329 320 316 280 295 275 262 286 211 216 241 228 207 187 200 203 167 230 235 226 197 221 202 244 190 228 235 226 227 100 291 323 292 297 255 233 262 265 237
344 336 335 324 329 352 333 326 303 148 346 303 114 334 297 211 324 192 207 204 184 160 167 211 168 201 227 225 187 228 159 207 223 211 213 208 309 276 322 330 311 298 225 189 241
341 346 330 320 317 332 337 326 138 52 250 349 18 7 356 5 335 324 179 208 226 192 216 215 204 163 191 172 210 213 200 92 46 193 261 207 177 277 311 349 342 354 68 55 87
343 354 22 355 327 323 329 225 197 186 345 5 336 333 327 343 346 356 28 36 200 211 227 221 232 188 187 258 249 175 165 181 212 191 224 257 111 249 339 352 320 347 21 19 19
352 50 5 354 330 298 307 215 204 57 10 339 327 326 35 7 6 344 31 60 24 357 313 209 213 176 270 215 186 187 184 175 180 186 196 156 210 19 13 38 41 42 30 35 28
2 28 14 4 348 308 170 76 26 17 314 329 327 15 9 9 353 353 58 26 23 5 13 351 206 336 60 13 313 171 200 187 105 22 89 198 228 35 17 24 24 28 25 16 19
3 18 8 9 17 33 56 81 47 279 325 346 15 18 8 0 23 5 34 1 14 30 25 12 301 39 1 347 24 22 360 164 182 166 199 216 301 89 20 10 10 15 13 7 12
15 10 0 12 51 52 73 63 340 354 10 35 15 21 350 1 333 78 10 356 25 9 48 11 16 336 30 21 3 12 24 330 295 79 166 152 222 146 76 18 13 1 359 3 8
358 29 10 17 46 22 29 343 358 347 4 13 4 10 357 345 1 40 83 258 350 341 6 356 20 20 340 91 80 72 45 29 339 42 21 138 136 140 72 26 10 357 351 355 4
350 337 24 37 34 6 332 1 4 4 15 9 332 37 2 351 351 27 8 257 17 357 335 330 115 9 267 180 62 44 27 51 308 335 49 17 178 180 7 5 360 353 348 356 354
8 10 0 34 28 6 354 358 1 0 345 353 350 27 350 339 334 315 314 328 348 309 342 42 54 132 229 335 355 41 31 22 93 14 353 279 307 341 343 346 354 355 357 351 353
25 49 2 338 2 356 20 355 353 355 343 360 357 351 332 294 310 281 3 327 342 6 26 64 133 77 265 282 2 5 29 1 330 207 230 291 300 356 4 353 4 351 347 340 338
38 3 349 337 345 10 357 338 356 350 287 336 349 327 321 264 290 297 319 333 317 347 32 10 1 136 294 228 206 78 15 359 11 5 330 332 291 6 4 350 350 341 338 326 323
22 17 358 360 336 32 12 338 342 350 310 322 319 311 317 4 318 302 307 15 33 6 350 5 32 41 305 302 124 44 7 347 335 326 317 331 10 354 342 334 328 322 314 309 314